Location: Saint Louis
(38.6272°N, 90.1978°W)
Time: 06:56:54
(UTC-05:00)

ISS - Pass Details

Date: 04 June 2013
Orbit: 402 x 403 km, 51.6° (Epoch: 26 June)

Event Time Altitude Azimuth Distance (km) Brightness Sun altitude
Rises 03:43:47 0° 307° (NW) 2,441 0.6 -17.8°
Reaches altitude 10° 03:45:56 10° 306° (NW) 1,558 -0.4 -17.5°
Maximum altitude 03:49:26 73° 222° (SW) 456 -3.3 -17.0°
Drops below altitude 10° 03:52:50 10° 136° (SE) 1,516 -0.5 -16.6°
Sets 03:54:54 0° 135° (SE) 2,367 0.5 -16.3°
